Regional Weather Roundup
Issued by NWS

Home | Current Version | Previous Version | Graphics & Text | Print | Product List | Glossary On
Versions: 1 2 3 4 5 6 7 8 9 10 11 12 13 14 15 16 17 18 19 20 21 22 23 24 25 26 27 28 29 30 31 32 33 34 35 36 37 38 39 40 41 42 43 44 45 46 47 48 49 50
000
ASUS43 KIND 161109
RWRIN

WEATHER ROUNDUP FOR INDIANA
NATIONAL WEATHER SERVICE INDIANAPOLIS IN
700 AM EDT TUE SEP 16 2014

NOTE: "FAIR" INDICATES FEW OR NO CLOUDS BELOW 12,000 FEET WITH NO
SIGNIFICANT WEATHER AND/OR OBSTRUCTIONS TO VISIBILITY.

* - STATION DOES NOT REPORT WEATHER SUCH AS PRECIPITATION OR FOG.

+ - STATION NOT QUALITY CONTROLLED BY THE NATIONAL WEATHER SERVICE.
    USE DATA WITH CAUTION...ESPECIALLY DEWPOINT AND RELATIVE
    HUMIDITY OBSERVATIONS.

INZ001>003-010>013-019-020-161200-
NORTHWEST INDIANA

CITY           SKY/WX    TMP DP  RH WIND       PRES   REMARKS
GARY /AIRPORT/ PTCLDY    50  46  87 W5        30.19R
KNOX *+        CLOUDY    50  49  94 CALM      30.18R
LA PORTE +     MOCLDY    47  47 100 CALM      30.19R FOG
MICHIGAN CITY+ CLOUDY    50  50 100 CALM      30.19R
MONTICELLO +   CLEAR     50  50 100 CALM      30.17R FOG
RENSSELAER +   CLEAR     46  46 100 N5        30.18R FOG
VALPARAISO     CLOUDY    53  51  93 CALM      30.19R

$$

LMZ046-743>745-161200-
SOUTHERN LAKE MICHIGAN

STATION/POSITION TIME  TEMP WIND        PRES
                       AIR  DIR/SP/G
                 (UTC) (F)  (DEG/KT/KT) (MB)
MICHIGAN CITY    1100   53   80/  5/  7   N/A

$$

INZ004-005-014>016-021>024-161200-
NORTH CENTRAL INDIANA

CITY           SKY/WX    TMP DP  RH WIND       PRES   REMARKS
ELKHART        PTCLDY    48  48 100 CALM      30.18
GOSHEN         CLOUDY    51  49  92 N7        30.18R FOG
LOGANSPORT +   PTCLDY    50  48  93 N6        30.18R FOG
PERU/GRISSOM   MOCLDY    52  52 100 N6        30.17R
ROCHESTER +    FOG       50  50 100 CALM      30.18R VSB 1/4
SOUTH BEND     CLEAR     47  43  86 CALM      30.19R FOG
WARSAW +       FOG       45  45 100 NW3       30.17R VSB 1/4

$$

INZ006>009-017-018-025>027-161200-
NORTHEAST INDIANA

CITY           SKY/WX    TMP DP  RH WIND       PRES   REMARKS
ANGOLA *+      MOCLDY    50  36  57 N6        30.16R
AUBURN +       CLEAR     48  45  87 NW3       30.17R
FORT WAYNE     MOCLDY    53  49  86 NE6       30.17R
HUNTINGTON +   MOCLDY    50  50 100 CALM      30.17R FOG

$$

INZ028-029-035-036-043>045-051>053-161200-
WEST CENTRAL INDIANA

CITY           SKY/WX    TMP DP  RH WIND       PRES   REMARKS
GREENCASTLE +  CLOUDY    54  52  94 N3        30.18R FOG
LAFAYETTE      FOG       49  49 100 CALM      30.18R VSB 3/4
TERRE HAUTE    CLOUDY    55  52  89 N5        30.19R FOG

$$

INZ030>032-037>040-046>048-054>057-064-065-161200-
CENTRAL INDIANA

CITY           SKY/WX    TMP DP  RH WIND       PRES   REMARKS
CP ATTERBURY + CLOUDY    54  52  94 N6        30.16R
COLUMBUS       CLOUDY    55  55 100 N7        30.15
FRANKFORT +    CLOUDY   N/A N/A N/A N6        30.18R HAZE
INDIANAPOLIS   CLOUDY    54  51  90 N7        30.16R
-EAGLE CREEK   CLOUDY    53  50  89 N7        30.17R
KOKOMO *+      CLOUDY    52  48  87 NE8       30.18R
MARION +       CLOUDY    51  51  99 NE3       30.17R FOG
MT COMFORT *+  CLOUDY    54 N/A N/A N8        30.17R
SHELBYVILLE    PTCLDY    53  50  89 N7        30.15R
ZIONSVILLE +   CLOUDY    53  50  90 N5        30.18R FOG

$$

INZ033-034-041-042-049-050-058-059-161200-
EAST CENTRAL INDIANA

CITY           SKY/WX    TMP DP  RH WIND       PRES   REMARKS
MUNCIE         CLOUDY    51  50  96 N8        30.17R FOG

$$

INZ060-061-067>069-081>083-085>088-161200-
SOUTHWEST INDIANA

CITY           SKY/WX    TMP DP  RH WIND       PRES   REMARKS
EVANSVILLE     CLOUDY    60  56  86 N9        30.16R
WASHINGTON +   CLOUDY    56  56 100 N7        30.16R FOG

$$

INZ062-063-066-070>080-084-089>092-161200-
SOUTH CENTRAL AND SOUTHEAST INDIANA

CITY           SKY/WX    TMP DP  RH WIND       PRES   REMARKS
BEDFORD +      CLOUDY    57  54  88 CALM      30.15
BLOOMINGTON    CLOUDY    55  53  93 N6        30.16R
SEYMOUR +      CLOUDY    59  57  94 N9        30.14R

$$




USA.gov is the U.S. government's official web portal to all federal, state and local government web resources and services.